Wind_Speed
24 22 19 17 17 18 19 21 23 24 25 26 28 28 28 28 28 27 27 26 25 25 25 25 26 26 26 25 25 24 24 23 21 20 18 15 11 5 1 3 4 4 4 5 4 2 4 5 7 6 6 8 8 7 8 8 8 8 7 7 7 6 6 5 5 4 5 6 7 9 11 14 15 15 14 12 9 6 4 2 2 2 1 1 2
24 23 22 21 20 21 22 23 24 25 27 28 29 29 30 30 29 29 28 27 26 26 25 26 26 26 26 26 25 24 24 23 22 21 20 18 16 13 8 3 2 4 4 6 6 5 6 7 9 9 9 11 11 10 10 10 11 11 11 11 10 9 10 9 9 7 7 7 7 8 10 13 14 15 15 14 12 10 8 7 6 5 5 4 3
24 24 23 23 23 23 24 24 25 26 28 29 30 30 31 31 31 30 29 28 27 26 26 26 26 26 26 26 26 25 24 24 23 22 21 19 18 16 15 11 5 3 4 6 8 8 9 10 11 11 11 11 12 12 12 12 12 12 12 12 11 10 10 11 11 10 10 9 8 8 10 12 15 16 17 16 15 13 12 11 10 9 8 8 7
24 24 24 24 24 24 25 26 27 28 29 30 31 31 31 31 31 31 31 30 28 27 26 26 26 26 26 26 26 25 25 24 24 23 22 20 19 16 13 12 9 8 6 5 6 9 10 11 12 12 12 12 13 14 13 13 14 14 14 13 12 9 7 9 10 10 11 12 10 9 10 12 14 16 18 18 18 16 16 15 14 13 12 11 11
23 24 24 25 26 26 27 27 28 29 31 31 32 32 32 33 33 33 33 32 31 29 28 27 26 26 25 25 25 25 25 25 24 24 23 22 21 15 10 12 10 10 9 6 6 7 9 9 10 11 10 9 12 14 13 14 16 16 16 15 14 12 12 14 12 8 8 11 11 11 11 12 14 16 18 19 20 20 20 19 18 17 16 15 14
24 24 25 26 27 28 28 29 30 31 32 32 33 33 34 34 35 35 35 35 34 32 30 29 28 26 25 25 24 24 24 24 24 24 24 24 24 18 12 14 13 11 10 8 8 9 9 9 11 11 8 6 7 11 12 13 15 15 14 15 16 16 17 17 17 15 13 12 11 11 12 12 13 16 17 19 21 22 22 22 22 21 20 19 18
24 25 26 27 28 29 29 30 31 32 32 33 33 34 35 35 36 36 36 36 36 34 32 31 30 29 27 25 24 23 23 23 22 22 22 22 24 21 15 15 14 13 12 12 11 11 11 10 13 13 10 9 9 10 11 13 13 11 11 13 16 18 19 19 19 19 18 18 17 16 14 13 14 17 18 19 20 21 22 23 24 24 23 23 22
24 25 26 28 28 29 30 31 32 32 33 33 34 34 35 36 37 37 37 37 36 35 34 33 33 32 31 28 25 23 22 22 21 21 20 20 22 23 20 17 15 14 12 13 13 12 12 13 15 16 15 14 15 15 13 12 12 11 10 11 14 16 19 20 21 21 21 21 21 21 20 18 18 19 20 20 20 21 21 23 23 24 24 24 24
25 26 27 27 28 29 30 31 32 32 32 32 33 34 35 36 36 36 36 36 35 35 34 33 33 34 33 31 28 25 23 22 21 21 20 20 21 23 23 21 19 15 13 14 14 12 13 14 16 17 17 18 19 19 16 12 11 11 12 12 14 15 16 18 20 22 23 23 23 22 22 22 22 22 22 21 21 20 20 22 22 23 23 23 23
24 25 26 27 28 28 29 30 31 31 32 32 32 32 33 34 35 35 35 35 34 33 32 31 31 32 33 33 31 29 27 25 23 22 21 21 22 23 24 23 21 18 16 16 14 13 13 14 15 16 16 17 18 20 19 16 13 12 13 13 15 17 18 18 19 21 23 24 25 25 24 24 25 26 26 24 23 20 19 18 20 21 22 22 22
23 24 24 25 26 27 28 28 29 30 31 31 31 31 31 32 32 33 34 35 35 33 30 29 28 28 30 32 33 33 33 31 28 26 23 22 21 21 22 22 22 20 18 16 14 14 15 14 15 15 15 16 17 18 19 18 16 16 15 15 14 16 19 20 19 20 21 23 25 26 26 28 28 29 29 28 27 26 24 22 21 22 23 22 22
22 22 22 23 23 24 25 26 27 28 29 30 30 30 30 29 30 31 33 35 36 35 31 27 25 26 28 29 30 33 34 34 33 30 27 25 23 22 21 20 21 21 19 17 15 13 14 14 13 13 13 14 15 16 17 18 18 18 18 18 17 17 17 18 19 20 20 21 21 21 23 26 28 29 30 31 31 31 31 30 29 28 27 26 25
20 20 20 20 21 21 22 23 24 25 26 27 28 29 29 28 29 30 32 34 35 35 32 27 25 26 27 28 27 28 30 32 34 33 30 27 25 24 22 21 21 21 20 19 16 14 13 13 13 13 14 14 14 15 15 16 17 18 18 19 19 19 19 19 19 19 20 21 22 22 22 23 25 27 29 30 32 34 34 34 34 33 31 31 30
18 18 18 18 18 19 20 21 22 23 24 25 26 27 27 28 29 30 31 33 33 34 33 29 27 26 26 26 26 26 26 27 31 33 33 30 27 25 24 22 21 20 20 19 18 16 15 15 15 16 16 15 15 14 14 14 15 17 18 19 19 20 20 20 21 21 21 21 23 24 25 26 26 28 29 29 30 33 35 36 37 37 37 36 35
16 16 16 16 16 17 18 19 20 21 22 23 24 25 26 27 29 30 31 32 33 33 33 32 30 27 25 24 25 25 26 26 27 31 34 33 31 28 27 25 23 21 20 19 19 19 18 18 18 18 18 17 16 15 14 14 14 15 16 18 19 20 20 20 21 21 22 22 23 24 26 28 29 30 31 31 30 30 32 34 36 38 39 40 40
14 14 14 14 14 15 16 17 18 19 21 22 23 24 25 27 28 29 30 32 33 34 34 34 32 28 24 22 21 23 24 26 26 27 31 34 34 32 31 29 27 25 23 22 21 21 20 20 20 19 19 19 18 16 15 14 14 14 15 17 19 20 21 21 21 21 22 23 24 25 26 27 28 30 31 32 32 31 31 32 33 35 37 39 40
12 12 12 12 12 13 14 15 16 18 19 21 22 23 24 26 28 29 30 32 33 34 35 36 35 30 24 20 19 20 21 24 25 26 28 32 35 34 34 33 32 31 28 26 24 23 23 23 22 22 21 21 19 18 16 15 14 14 14 15 17 19 21 21 22 22 23 23 24 25 27 28 28 29 31 33 33 33 33 33 33 34 35 37 38
10 10 10 10 10 11 12 14 15 16 18 19 20 21 23 26 28 29 31 32 33 34 35 36 36 34 28 23 20 19 20 21 23 25 26 30 35 36 36 36 36 36 34 31 29 28 27 27 26 25 25 23 22 20 17 16 14 14 14 13 14 17 19 20 21 22 23 24 25 26 27 28 29 30 30 32 33 34 35 35 35 35 36 37 38
7 8 8 9 9 10 11 13 14 15 17 18 19 20 22 25 27 29 31 32 33 35 36 36 36 35 33 28 24 21 21 21 22 23 24 27 32 36 37 38 39 39 38 36 34 33 31 31 30 29 27 25 23 21 19 17 15 14 14 13 13 14 16 17 18 20 21 23 25 27 28 30 31 31 31 32 33 34 36 36 37 37 37 39 40
6 6 7 8 9 10 11 12 13 15 16 18 19 20 21 24 26 28 30 31 33 34 35 36 36 36 35 33 28 24 22 23 22 22 22 23 27 33 37 37 38 40 41 40 38 36 34 33 33 32 30 28 26 24 22 20 18 17 15 14 13 13 14 16 17 19 21 23 25 26 28 29 30 32 33 33 33 34 36 37 38 39 39 41 42
4 5 6 7 8 9 11 12 14 15 16 18 20 21 22 23 25 27 29 30 32 33 34 35 36 36 37 36 33 27 22 23 24 23 23 23 23 27 32 35 38 40 42 42 41 39 36 35 34 34 33 32 30 28 26 24 23 21 19 17 15 15 15 16 17 19 21 23 25 26 27 27 28 29 31 32 34 34 36 37 39 41 42 43 44
2 3 4 6 7 9 11 12 14 15 16 18 20 21 22 23 25 26 28 29 31 33 33 34 35 36 37 38 37 32 26 23 24 25 24 24 23 23 25 30 36 40 42 43 43 42 40 37 35 35 34 34 34 33 30 28 27 25 24 22 19 17 16 16 17 19 20 22 24 25 26 26 26 26 27 28 30 32 34 36 38 41 43 44 46
1 2 3 5 6 8 10 12 14 15 16 18 20 21 23 23 24 26 27 29 30 31 33 34 35 37 38 39 39 37 31 25 24 25 25 25 24 23 22 24 29 36 40 42 43 43 42 40 37 36 35 35 36 36 34 32 29 28 27 25 23 21 18 17 17 18 19 21 23 24 25 26 27 26 26 26 27 28 30 32 34 37 40 42 44
2 3 3 4 6 7 9 11 14 15 16 18 19 21 23 24 24 25 27 28 29 30 32 34 35 37 38 39 40 40 36 29 26 27 27 26 26 25 24 23 25 30 35 39 42 44 44 42 39 38 37 37 38 39 38 35 32 29 28 27 26 25 23 21 20 19 19 20 21 22 24 25 27 27 28 28 28 29 30 31 33 34 36 38 40
4 4 4 5 6 7 9 11 13 15 16 18 19 21 23 24 24 25 26 28 29 29 31 33 35 37 39 39 40 42 39 33 28 27 27 27 27 27 27 25 25 27 30 35 39 43 45 44 41 39 39 39 40 41 40 39 36 32 30 29 28 27 25 24 22 21 20 19 20 20 21 22 24 25 26 28 29 30 32 33 34 36 38 39 40
5 5 5 6 7 9 10 12 13 15 16 17 19 20 22 24 24 25 26 27 28 29 30 32 35 37 38 39 40 41 41 38 31 28 27 28 28 29 28 27 26 27 29 31 35 40 43 45 44 41 40 40 41 42 42 42 40 37 34 32 31 30 28 27 25 23 21 20 20 20 21 22 22 23 24 25 27 29 31 33 35 38 39 41 43
7 7 8 8 9 11 12 14 15 16 16 17 18 20 21 23 25 26 27 27 27 28 29 32 35 36 37 38 39 39 40 39 36 32 29 29 29 29 28 27 26 28 29 30 33 36 40 44 45 44 41 41 42 43 43 43 43 42 38 36 34 33 31 29 28 26 25 24 24 24 24 24 23 23 23 24 26 27 29 32 34 37 40 42 44
9 9 10 11 12 14 15 16 17 17 17 17 18 19 21 23 25 26 27 27 27 27 28 32 34 35 36 37 38 39 39 39 39 37 34 31 30 29 28 26 26 27 30 31 32 34 37 41 45 46 43 42 42 43 44 44 44 43 40 38 36 35 33 31 30 29 29 29 29 30 31 30 28 26 26 27 28 30 32 33 35 37 39 42 44
11 11 11 13 15 17 18 18 19 19 19 19 19 20 21 23 25 26 27 28 28 28 29 31 32 33 35 37 38 39 39 39 39 39 38 35 33 31 29 26 24 26 29 30 31 32 34 37 42 45 44 43 42 43 43 44 44 43 41 39 38 37 36 34 33 32 32 33 34 34 35 35 34 33 32 32 32 34 36 37 39 40 41 42 44
13 14 14 15 17 19 20 20 21 21 22 22 21 21 22 23 25 26 27 28 29 30 30 31 31 33 35 36 38 39 40 40 40 41 40 38 37 35 32 28 25 26 28 29 30 31 33 35 38 42 43 42 41 42 43 44 44 43 42 41 41 41 40 39 38 37 37 37 37 37 38 38 38 39 38 37 37 38 40 42 43 44 44 45 46
17 17 18 19 20 22 22 22 22 23 24 24 24 23 23 24 26 27 27 28 29 31 32 32 32 34 36 37 38 39 40 41 41 42 42 42 41 39 36 32 28 28 29 29 28 29 31 34 36 38 40 40 40 41 43 44 44 44 44 44 44 45 45 44 43 42 42 42 42 42 42 42 44 45 45 44 43 45 46 47 48 48 48 49 49
21 21 21 22 23 24 25 24 24 24 25 26 26 25 25 26 27 28 28 29 30 32 33 33 34 35 37 38 39 40 41 41 42 43 44 44 44 42 40 36 32 30 30 29 28 28 30 33 34 36 38 39 39 41 43 45 46 45 45 45 46 47 48 48 47 46 47 48 48 47 47 48 50 52 53 52 52 53 54 54 54 53 53 52 52
24 24 24 25 26 27 28 27 26 26 27 28 28 27 27 28 28 29 29 29 31 33 34 35 36 36 37 39 40 41 42 43 43 44 45 45 45 44 42 39 35 32 30 30 29 29 31 33 34 34 37 38 39 40 43 45 47 47 46 46 47 49 50 51 50 49 50 52 53 53 52 53 55 58 59 59 59 60 61 61 60 59 57 57 56
26 27 27 27 28 29 30 29 28 28 28 29 29 28 29 29 30 30 31 31 32 34 35 36 37 37 38 39 40 41 43 43 44 44 45 46 46 46 44 42 37 33 31 30 30 31 33 34 34 34 36 38 39 40 43 46 49 49 48 48 49 51 52 54 54 53 53 56 58 58 57 57 59 62 63 63 65 66 67 67 66 64 62 60 59
29 29 29 30 31 32 31 30 30 30 30 31 30 30 30 31 31 31 32 33 33 35 36 37 38 39 40 41 41 42 43 44 45 45 46 47 47 48 47 44 39 34 32 31 31 31 33 34 35 35 36 38 39 41 44 47 50 51 50 50 51 53 55 56 57 56 56 58 61 62 62 62 64 65 67 67 69 71 72 72 71 70 67 64 61
32 32 32 33 34 33 32 31 31 31 31 32 32 32 33 33 32 32 33 34 35 36 37 38 39 40 41 42 43 43 44 44 45 46 46 47 48 48 48 47 42 36 33 31 31 31 31 33 35 35 36 37 39 41 43 48 51 52 52 51 53 55 57 58 59 59 59 61 63 65 66 67 68 69 70 71 72 74 75 75 74 73 71 68 64
33 34 34 34 34 34 32 31 32 33 33 33 33 34 35 35 34 34 35 36 37 38 39 40 41 41 42 43 44 45 45 45 46 46 47 48 48 48 48 48 45 39 35 32 32 31 31 32 35 36 35 36 38 40 43 48 51 53 53 53 54 57 59 60 60 61 62 63 65 67 69 70 71 71 72 73 74 76 77 76 75 73 71 67 64
34 35 35 35 35 34 32 32 33 34 35 35 35 36 36 37 36 36 36 38 39 40 41 42 43 43 44 45 46 46 47 47 47 47 48 48 48 48 48 48 46 42 36 33 32 32 32 32 34 34 33 34 36 39 42 47 50 53 53 54 55 58 61 62 62 62 64 65 67 69 71 73 73 74 75 75 76 78 79 78 76 72 68 64 60
35 35 35 35 35 34 34 34 35 36 37 37 37 37 38 38 39 39 39 39 41 42 43 45 45 46 46 46 47 48 48 48 49 49 49 49 49 49 49 48 46 42 37 34 33 33 33 33 32 30 30 32 35 38 41 46 49 53 54 55 56 59 63 64 63 63 65 67 68 71 74 75 77 77 78 79 79 80 81 80 78 73 67 61 56
37 37 37 36 36 36 36 36 36 37 38 40 40 39 38 40 41 41 41 41 42 44 45 47 47 47 48 48 49 50 50 50 50 50 51 50 50 50 50 49 46 42 37 33 33 33 34 34 31 28 29 32 35 38 41 45 49 53 55 57 58 60 64 66 65 65 67 69 70 73 76 78 80 81 82 83 83 84 84 83 80 76 70 62 54
38 38 38 38 38 38 38 38 38 38 40 42 42 40 40 41 43 44 44 44 45 46 47 49 50 50 50 50 51 52 52 51 52 52 52 52 51 51 51 49 45 41 37 34 33 34 35 35 32 28 29 33 35 38 41 45 49 53 56 59 60 62 65 68 67 66 69 71 72 75 79 81 83 85 86 87 87 87 87 86 83 79 72 64 55
39 39 39 40 40 40 40 40 40 41 41 42 43 42 42 43 44 45 46 47 47 48 50 51 52 53 53 53 53 54 54 53 53 53 54 54 53 52 52 49 44 40 38 37 36 35 37 38 34 29 30 34 36 39 42 46 50 55 58 61 62 63 67 69 68 68 70 73 75 78 81 84 86 89 90 91 91 91 89 88 86 81 74 65 56
40 40 41 42 42 42 42 42 43 43 43 43 44 44 44 45 46 47 48 49 50 51 53 54 54 55 56 56 56 57 57 56 55 55 55 56 55 54 53 49 44 40 39 39 38 38 40 40 35 29 31 35 37 40 44 47 51 56 60 62 63 64 67 69 69 69 71 75 77 80 84 86 89 91 93 94 95 94 92 90 88 84 77 68 58
42 43 44 44 43 44 44 44 45 45 45 45 46 47 47 48 48 49 50 51 52 54 55 57 57 58 58 59 59 60 60 59 58 58 58 58 57 55 54 50 45 41 40 40 39 40 42 41 34 29 32 36 39 42 46 49 52 57 61 63 63 65 67 69 69 70 72 76 79 82 85 88 90 93 95 97 98 97 95 93 91 86 80 71 61
45 46 46 45 45 46 46 47 47 47 48 49 49 50 51 51 51 52 52 54 55 57 58 59 60 61 61 62 62 63 62 62 61 61 60 59 58 56 54 50 45 41 39 39 40 42 43 40 33 30 33 38 41 44 47 50 54 58 62 64 64 66 68 68 69 71 73 76 80 83 86 89 92 94 97 99 100 99 97 94 92 88 82 73 62
47 48 48 48 48 49 49 49 50 50 51 53 53 54 54 54 55 55 55 57 58 60 61 62 62 63 64 64 65 65 64 64 63 63 62 60 58 56 54 50 45 40 37 37 40 42 41 37 32 31 34 39 44 46 49 52 55 58 62 64 65 66 68 68 69 72 74 77 82 85 87 91 93 96 99 101 102 102 99 96 93 89 85 76 65
50 51 51 52 52 52 52 52 52 53 55 56 57 58 58 58 58 57 58 60 62 63 64 65 65 65 66 67 68 67 66 66 65 64 63 60 58 56 54 50 45 39 36 37 40 41 40 36 32 32 35 41 45 48 50 53 56 59 63 65 66 67 68 68 70 73 75 78 83 87 89 92 95 97 100 102 103 103 101 98 94 90 87 81 71
54 54 55 56 56 56 56 56 56 57 58 60 61 61 61 61 61 61 62 63 64 65 66 67 67 68 69 69 70 70 68 67 66 64 62 60 57 54 51 48 43 38 36 38 40 41 39 35 32 33 37 41 46 48 51 54 57 59 62 65 66 67 68 68 70 74 76 79 84 88 90 93 96 98 101 103 105 105 104 101 96 91 88 84 75
57 58 59 59 60 60 61 61 61 61 62 63 64 65 66 65 64 64 65 65 66 67 68 69 70 71 71 71 71 71 69 67 66 63 60 58 55 51 48 45 41 37 36 38 40 40 38 34 33 35 38 42 46 49 52 55 57 59 62 64 66 68 69 69 71 74 77 81 85 90 92 94 97 99 102 104 106 107 106 104 100 94 90 85 77
61 61 62 63 63 64 64 65 64 64 65 66 68 69 70 69 68 68 68 69 69 69 70 71 72 71 71 70 71 71 67 65 63 60 57 54 51 47 44 41 38 36 36 38 40 39 36 33 34 37 39 43 47 51 54 56 58 59 62 64 66 68 69 71 72 75 78 82 86 91 94 96 98 100 103 104 106 108 108 106 102 97 92 87 79
65 65 65 66 67 68 68 68 68 68 69 69 70 71 72 73 73 72 72 71 71 70 71 71 71 70 69 68 68 68 64 61 59 56 51 49 46 42 39 37 35 35 35 37 39 37 34 34 36 38 41 45 48 52 55 57 57 59 62 64 66 68 70 72 73 76 79 82 87 91 94 96 98 101 103 105 107 108 109 107 104 100 95 91 82
Wind_Direction
70 74 72 68 62 58 55 52 50 47 46 45 44 43 43 43 43 44 45 45 46 47 47 50 51 50 47 44 42 42 47 53 58 61 62 65 71 79 170 232 254 256 245 249 241 282 302 289 285 286 292 287 283 285 286 286 288 293 296 300 309 318 328 327 314 289 249 229 218 219 219 215 214 215 216 215 216 222 230 238 283 299 336 26 53
70 72 71 69 65 61 57 54 51 50 50 48 47 46 45 44 44 44 45 45 45 45 45 47 50 51 50 49 46 43 43 44 49 54 57 60 62 60 53 50 277 277 270 271 264 257 266 281 286 279 277 283 288 288 285 282 282 285 284 281 286 296 311 315 308 302 284 260 240 231 231 229 227 225 225 226 228 235 244 249 261 273 281 292 303
70 71 70 68 65 62 59 56 54 53 52 51 49 48 47 46 45 45 45 45 44 44 44 45 47 49 49 49 48 46 43 41 42 43 48 51 52 55 50 46 40 348 299 287 283 273 271 276 283 279 272 277 286 287 286 286 287 285 282 279 281 296 314 309 298 297 294 283 266 249 241 239 238 236 234 235 237 241 248 253 257 263 272 279 288
71 70 70 68 66 64 62 60 57 55 54 53 51 49 49 48 47 46 45 44 44 44 44 44 45 47 48 49 47 46 44 42 42 40 42 42 44 51 43 35 35 27 9 328 304 290 284 283 288 288 280 277 277 278 279 282 284 283 282 281 277 278 283 282 286 299 299 289 280 268 257 249 246 244 242 241 243 248 252 256 257 260 266 269 276
72 71 70 69 67 66 64 62 59 57 55 54 52 51 49 49 48 47 46 45 44 44 44 44 45 46 47 48 48 46 44 43 42 42 44 43 46 47 26 21 20 12 17 12 358 335 317 316 322 314 300 293 282 277 275 270 269 273 277 276 270 257 248 253 261 271 284 287 286 284 278 269 258 251 248 247 247 249 254 257 259 261 263 264 267
73 72 70 69 68 66 64 62 60 58 56 54 52 50 49 48 47 46 45 44 44 44 44 44 44 45 46 47 48 47 45 44 43 44 46 47 52 50 20 16 16 5 8 3 1 359 344 344 354 349 338 336 311 293 288 277 269 268 270 270 265 257 253 255 256 252 252 258 262 269 279 283 275 260 252 250 250 251 253 256 259 261 263 263 264
74 71 69 67 65 64 62 60 59 57 55 53 51 50 48 46 45 44 43 43 42 43 43 43 43 43 45 45 46 47 45 44 45 46 49 49 52 51 34 19 14 12 15 5 358 356 348 348 356 354 350 351 339 320 308 298 290 277 261 260 261 258 257 257 256 254 250 249 249 251 255 261 268 268 263 258 255 255 256 256 258 260 262 263 264
73 70 67 65 63 61 60 59 57 56 54 52 51 49 48 46 44 43 42 41 41 41 42 43 44 44 44 45 45 46 46 44 45 47 51 51 47 46 43 34 24 20 20 16 11 2 354 354 355 350 345 346 342 333 324 312 304 290 266 255 256 255 252 252 254 255 253 253 253 253 252 251 257 266 269 269 265 261 260 260 260 261 263 265 266
72 69 66 63 61 59 58 57 56 55 53 52 51 49 48 46 44 42 42 41 40 40 41 43 45 45 44 45 46 46 47 46 46 48 50 52 49 46 47 44 39 33 28 28 24 14 5 0 357 351 345 342 338 333 331 324 307 293 283 272 264 259 252 246 246 250 253 252 252 251 251 252 253 257 259 264 268 269 269 267 265 264 264 267 269
73 70 67 64 61 59 57 56 55 54 53 52 51 49 48 46 44 42 42 41 40 40 40 43 45 45 45 46 47 47 47 46 45 46 48 50 50 50 51 49 47 44 40 38 27 13 12 8 360 355 348 339 333 329 329 327 315 297 290 285 275 270 266 258 250 248 247 247 251 251 249 249 249 251 253 255 259 263 265 266 267 268 269 271 274
74 71 68 65 62 60 58 56 54 53 52 51 50 49 48 45 43 41 41 41 40 40 42 45 46 45 45 46 49 50 49 48 46 45 45 46 45 46 47 45 43 43 43 43 32 13 9 11 3 355 347 337 331 330 326 322 317 307 297 292 285 278 274 273 270 264 254 249 250 250 250 250 250 250 252 253 252 251 251 253 259 264 267 269 271
76 73 69 66 63 60 58 56 53 52 50 50 49 48 47 44 42 41 40 39 39 40 44 50 49 47 45 45 48 51 50 48 46 45 44 43 41 39 38 36 33 33 35 37 37 21 9 8 2 352 347 339 334 333 326 318 313 309 303 297 292 288 282 278 278 277 271 265 257 251 249 250 249 249 249 251 252 251 250 250 252 256 259 261 264
77 74 71 66 62 58 56 53 52 51 50 48 48 48 47 45 43 41 40 39 38 39 43 48 48 45 44 43 44 46 47 44 43 43 43 42 41 38 35 32 28 26 25 25 27 22 10 2 356 352 351 348 343 336 328 317 309 304 301 298 293 290 286 282 281 279 278 275 272 267 262 258 254 249 248 249 249 250 251 251 252 253 255 256 258
79 76 71 66 61 56 55 53 51 50 48 47 46 46 46 45 44 42 41 40 40 39 39 40 40 39 39 39 39 39 40 39 37 37 39 40 40 38 36 34 30 25 22 18 15 13 7 1 355 352 351 350 345 339 331 321 310 301 297 294 292 289 286 285 283 281 279 277 276 275 273 273 269 261 258 256 253 250 250 251 252 253 253 253 254
81 77 72 66 62 57 54 52 50 48 46 45 44 42 42 42 42 41 39 39 39 38 37 35 33 32 31 31 32 32 33 33 32 32 33 34 35 35 34 33 30 26 21 16 11 6 3 359 355 351 350 347 344 340 335 328 320 307 297 292 291 289 286 284 283 282 281 279 276 274 273 274 275 273 272 271 266 260 256 255 254 253 253 252 252
84 79 73 68 62 58 53 50 47 45 43 42 40 38 38 38 38 37 36 37 37 36 35 33 31 28 25 25 25 24 26 28 29 28 28 29 30 31 30 29 28 26 22 17 11 5 1 357 354 351 349 347 344 341 337 332 327 319 307 296 291 290 289 286 283 282 282 281 279 277 274 272 272 272 273 274 274 272 268 265 262 259 257 255 254
88 82 74 67 59 54 50 46 43 41 40 38 37 35 34 35 35 34 33 33 34 33 32 31 30 27 24 22 23 21 20 21 23 24 25 26 27 28 28 27 26 24 22 19 14 9 4 0 357 354 351 349 346 343 340 335 329 325 317 304 293 289 289 289 286 284 282 282 281 280 278 275 273 270 270 270 272 273 273 272 271 269 266 262 259
89 80 72 62 52 46 44 42 39 36 34 33 32 30 30 33 34 33 31 30 31 31 30 29 28 27 25 22 22 23 21 20 19 19 21 24 26 26 26 26 25 23 22 20 16 13 10 6 3 1 357 354 350 347 343 339 333 328 322 313 299 289 287 288 289 287 286 284 284 283 281 279 276 272 270 268 268 269 270 271 272 273 273 271 268
84 74 64 54 43 36 35 33 31 28 26 26 26 25 25 29 31 32 30 28 28 29 28 27 26 25 23 20 17 18 21 22 20 16 16 21 24 25 25 25 25 24 22 21 19 16 14 12 11 9 6 3 359 357 354 350 344 336 328 320 308 295 288 287 287 287 286 285 285 285 285 284 281 277 273 270 267 266 266 267 268 269 271 273 273
73 63 54 45 33 25 23 22 21 19 18 17 18 18 18 21 25 27 27 26 26 26 26 24 23 22 21 19 15 12 15 19 20 18 15 17 20 23 25 25 25 25 23 22 20 18 17 18 18 18 16 13 9 6 4 2 358 351 341 331 320 307 295 288 286 284 283 281 281 282 284 285 284 282 278 275 271 269 267 266 265 265 267 269 271
62 50 43 36 25 16 11 10 11 12 10 10 11 12 10 11 16 20 23 23 23 23 22 21 20 19 19 17 14 10 8 11 13 14 14 14 14 18 22 25 26 25 23 21 20 18 18 19 20 20 20 19 16 12 9 8 7 4 358 349 337 325 313 301 293 289 287 284 283 282 282 285 286 285 282 280 277 275 272 269 267 266 265 266 268
49 35 29 25 18 10 4 1 3 5 5 4 5 6 6 5 9 13 16 18 19 19 18 18 17 16 16 16 16 12 7 3 3 6 8 9 8 9 13 18 22 23 22 20 18 17 17 18 18 19 20 20 19 17 15 14 13 11 8 3 356 345 332 319 309 300 294 290 288 285 285 286 289 289 288 285 282 278 275 273 270 268 267 267 267
347 358 5 9 10 6 0 357 357 359 1 1 1 2 2 1 3 7 10 12 14 15 15 14 14 14 13 14 15 14 10 4 0 0 1 2 2 0 359 2 10 16 18 18 17 16 16 17 18 18 18 19 19 18 18 18 18 18 16 13 9 2 353 342 331 319 309 301 296 292 289 288 289 290 291 291 288 285 281 276 273 271 270 269 269
316 334 346 352 357 359 357 353 351 353 355 356 357 358 358 358 358 1 4 8 10 11 12 11 11 11 11 12 13 13 12 7 2 1 1 1 358 356 353 350 354 2 9 14 15 14 13 14 15 17 17 18 19 19 18 17 18 20 21 19 17 12 6 0 353 344 334 323 314 306 299 294 292 291 291 291 291 290 288 284 280 277 275 273 273
301 314 328 336 342 345 347 347 346 346 350 352 352 354 355 355 356 357 360 3 5 6 8 8 8 8 8 10 11 11 11 7 2 1 2 2 359 356 354 351 350 353 1 8 12 12 11 10 11 13 15 16 18 19 18 17 17 18 21 20 19 16 11 7 2 356 348 340 331 322 314 307 302 298 296 295 294 293 292 289 286 283 280 278 276
288 296 308 319 327 331 334 337 338 338 342 346 348 349 350 350 351 353 355 357 360 1 3 5 5 4 5 6 8 9 9 8 5 2 2 2 0 358 356 355 354 354 356 2 7 8 8 7 7 9 11 13 15 17 17 17 17 18 19 18 17 14 11 7 3 359 353 347 340 332 324 317 313 310 307 305 303 300 297 294 290 287 283 280 277
282 287 295 305 315 322 324 326 328 330 333 338 342 344 345 345 346 349 350 351 353 355 357 358 359 360 1 3 5 6 6 7 6 3 360 358 358 357 356 355 356 356 356 358 1 2 3 3 3 4 6 7 11 13 14 15 16 17 17 16 15 12 8 4 0 356 351 346 340 333 327 321 316 313 314 315 314 312 309 304 298 291 286 282 278
283 286 290 297 306 313 315 318 321 322 324 329 334 338 340 340 340 344 347 347 348 348 348 350 352 355 357 358 0 2 2 3 4 3 359 355 353 353 353 353 355 357 357 358 357 357 358 359 359 359 1 2 5 8 10 11 14 15 15 14 12 10 6 2 356 352 346 341 336 333 331 328 324 321 320 321 321 320 318 314 308 301 293 286 280
284 287 289 294 301 306 309 312 315 316 318 322 327 331 335 336 335 338 343 345 345 344 343 346 348 351 353 354 356 357 358 358 359 0 360 357 354 352 351 350 351 355 357 358 357 355 353 353 354 355 356 358 2 4 6 7 10 12 12 11 10 8 5 1 356 351 347 342 339 336 334 332 331 329 327 325 324 323 322 318 313 307 299 291 283
284 286 290 295 299 302 305 309 311 312 314 317 321 326 330 332 332 334 338 340 341 341 342 344 347 348 349 351 352 353 354 355 355 356 357 356 354 351 348 345 344 346 351 355 355 353 350 349 351 352 352 354 359 3 4 4 5 8 9 8 7 6 3 1 358 355 350 346 342 339 336 334 332 331 329 327 326 326 324 321 316 310 303 295 287
283 287 291 295 299 302 304 307 309 310 310 313 317 322 326 328 329 330 333 336 336 337 338 340 342 344 345 347 348 349 350 351 352 352 353 354 353 350 347 343 338 338 344 351 352 350 348 346 348 350 350 351 356 1 4 4 3 4 5 5 4 3 2 0 358 356 353 349 346 343 339 337 334 333 332 331 331 329 327 323 319 313 305 298 291
281 285 290 294 299 301 302 304 307 308 308 310 314 318 322 325 325 326 329 332 333 333 334 335 338 340 342 343 344 345 346 348 349 349 350 350 350 350 347 343 337 335 339 346 349 347 344 343 344 348 349 348 352 359 2 3 2 2 2 3 2 1 359 358 357 354 352 350 348 345 342 339 337 336 336 336 335 333 330 326 321 315 309 301 293
278 282 286 291 295 299 300 300 303 304 305 307 310 314 318 321 322 323 325 328 329 329 330 331 333 336 338 340 341 341 342 344 345 346 347 346 347 347 347 343 339 334 334 340 344 341 338 338 340 345 347 346 349 355 360 1 1 0 360 0 360 359 358 358 356 353 351 350 349 347 343 341 339 338 338 338 337 335 331 328 323 318 311 304 297
277 280 283 287 290 294 297 297 299 301 302 304 307 311 314 317 319 320 321 323 325 326 326 327 330 333 335 337 338 338 339 340 341 342 343 343 343 344 345 344 340 334 332 336 339 335 333 334 336 341 345 345 345 351 357 359 359 358 358 358 357 357 357 357 356 353 350 350 349 347 345 342 341 340 340 339 338 336 333 329 325 320 314 307 299
277 279 282 284 287 291 294 295 296 298 299 302 305 309 312 314 316 318 319 320 321 322 323 324 326 329 331 333 334 335 335 337 338 339 340 340 340 341 342 342 340 334 330 332 333 332 332 332 333 337 342 343 343 347 353 357 358 357 356 355 355 355 355 355 355 353 350 349 349 348 346 343 342 341 341 340 339 337 334 330 326 321 316 309 302
277 279 280 282 285 288 290 292 294 296 298 301 304 306 309 311 313 316 317 317 318 319 319 320 322 325 327 329 331 332 332 333 335 335 336 337 338 338 339 340 339 334 328 327 328 331 332 330 329 333 338 340 341 344 350 355 356 355 354 353 354 354 354 354 354 352 349 348 348 348 346 344 342 341 341 341 340 338 335 331 327 322 318 312 305
276 278 279 281 283 285 287 289 292 295 297 300 302 304 306 308 310 313 314 315 315 316 317 318 319 322 324 325 327 328 328 329 331 332 333 334 335 336 336 336 336 332 326 322 323 327 329 326 324 327 334 338 339 342 348 353 354 353 352 351 352 353 353 353 353 352 349 348 348 348 347 345 343 342 342 342 341 339 336 333 329 325 320 314 307
274 276 279 281 282 283 285 288 291 294 296 298 300 303 304 306 308 310 312 313 313 314 315 315 317 319 321 322 324 324 324 326 328 329 329 330 332 333 334 333 332 329 324 320 319 322 324 321 320 323 329 335 337 341 347 351 352 352 350 350 350 351 352 352 352 351 350 348 347 347 347 346 344 343 342 343 342 340 338 335 333 328 322 316 308
273 276 279 280 281 282 284 287 289 292 294 296 298 301 303 305 306 307 309 310 311 311 312 313 314 316 318 319 321 321 321 323 324 325 327 328 329 330 331 330 329 326 323 319 318 318 317 318 319 320 326 332 336 340 345 349 351 350 349 349 348 350 351 352 351 351 351 349 347 347 347 346 346 345 344 344 343 341 340 339 336 332 326 320 312
274 276 278 279 280 282 283 286 288 290 292 294 296 299 302 302 303 304 306 307 308 309 310 310 312 313 315 316 318 318 318 320 321 322 324 324 326 327 328 327 326 325 321 318 316 314 312 315 318 319 325 331 335 339 344 348 349 348 348 348 347 348 350 351 351 351 351 350 347 347 347 347 347 346 346 345 344 343 342 342 340 336 331 325 318
273 275 277 278 279 280 282 285 287 289 291 292 295 298 299 300 300 302 304 305 306 307 307 307 309 310 312 313 314 314 315 317 318 320 320 321 322 323 324 325 324 323 320 316 314 311 309 313 315 317 323 330 333 338 342 346 347 347 346 346 346 347 348 350 351 351 351 350 347 347 348 348 347 348 347 346 346 345 344 344 342 340 335 330 323
272 273 275 276 277 279 282 284 286 287 289 291 294 296 296 297 298 300 302 303 304 305 305 305 306 307 309 310 311 312 313 314 316 317 317 318 319 320 322 323 322 321 319 316 312 309 309 311 313 314 322 328 331 336 341 344 345 345 345 345 345 345 347 348 351 352 350 349 348 347 348 349 348 348 348 347 347 346 346 345 344 343 339 333 326
271 272 273 274 277 279 281 283 284 286 288 290 292 293 294 295 297 298 300 301 302 303 303 303 303 305 306 308 309 309 310 312 314 315 315 315 316 317 319 321 319 317 317 316 313 310 309 311 311 311 319 326 330 335 339 343 344 343 343 344 344 344 345 347 351 352 350 349 347 346 348 349 348 348 348 347 347 347 347 346 346 345 341 336 329
272 273 274 276 278 280 281 283 284 286 288 289 290 291 292 293 295 296 298 299 300 301 301 301 301 303 305 306 306 307 308 310 312 312 312 312 314 315 317 319 317 314 313 314 311 308 308 309 308 309 318 325 329 333 338 340 341 341 341 343 343 343 344 347 350 351 349 348 347 346 348 349 349 348 348 348 348 348 348 347 347 346 343 338 332
273 274 276 277 279 280 282 283 284 286 288 288 288 289 290 292 293 294 295 297 298 298 298 299 300 302 303 304 304 304 306 308 309 310 310 310 311 313 314 316 314 310 309 309 307 306 306 306 305 308 317 324 328 332 336 337 339 339 340 342 343 343 344 347 349 349 349 347 346 346 347 349 349 348 347 348 348 348 348 347 347 346 344 340 334
274 276 277 278 279 280 281 283 285 286 287 287 287 287 288 290 291 293 294 294 295 295 296 298 299 301 302 302 302 302 304 306 307 307 307 308 310 311 312 313 311 307 305 306 305 305 305 304 303 307 316 323 328 331 333 335 336 338 339 341 343 343 344 347 347 347 347 346 346 347 347 349 349 348 347 347 348 348 348 348 347 346 345 342 337
276 277 278 278 279 280 281 283 284 284 284 284 285 286 287 289 290 291 292 293 293 293 295 296 298 299 299 299 299 300 302 303 303 304 305 306 308 310 310 309 307 304 302 304 305 306 305 302 302 306 314 322 326 329 331 333 334 336 338 341 343 343 345 346 346 346 347 346 345 347 347 348 349 348 347 347 347 347 348 348 347 347 345 343 339
275 276 277 278 279 280 281 282 282 282 283 283 285 286 287 288 289 290 290 290 291 292 293 294 296 296 296 297 298 298 299 300 301 302 303 305 307 308 307 306 304 301 301 303 305 305 304 302 302 306 312 319 324 328 330 332 333 335 337 340 343 344 344 344 344 345 346 345 345 347 347 348 349 348 347 347 347 347 347 348 348 347 346 344 341
274 275 276 277 278 279 280 280 281 282 283 284 285 286 286 287 288 288 288 288 289 290 292 293 293 294 294 295 296 296 297 298 298 300 302 305 305 304 302 302 301 298 299 303 304 304 304 303 302 304 309 316 322 326 329 330 331 333 336 340 342 343 343 343 344 344 345 344 344 346 347 347 348 348 348 347 347 347 347 348 348 348 347 345 342
273 274 275 276 277 278 278 279 280 281 282 284 285 285 286 287 287 286 286 287 288 289 290 290 291 292 293 293 294 294 295 296 297 300 303 304 302 300 298 298 297 296 298 302 303 303 303 303 303 304 308 314 320 324 328 329 330 332 336 339 341 341 342 342 343 343 344 343 344 345 347 347 347 347 347 347 347 347 347 348 348 347 347 346 344
273 274 275 276 276 277 278 279 280 281 282 283 284 284 285 286 286 286 286 287 287 288 288 288 289 290 290 291 291 292 293 295 298 301 303 301 299 297 295 295 294 293 297 300 301 301 302 303 304 305 309 314 318 322 326 328 328 331 335 337 339 340 340 341 342 342 342 342 343 344 346 346 347 347 347 347 347 347 347 348 347 347 346 346 345
Height
10980 10980 10980 10979 10979 10978 10977 10976 10974 10973 10971 10969 10968 10966 10965 10963 10962 10960 10959 10958 10957 10956 10955 10953 10951 10949 10947 10944 10943 10942 10941 10941 10941 10941 10940 10940 10940 10940 10940 10939 10939 10938 10938 10938 10937 10937 10937 10936 10936 10936 10936 10936 10936 10936 10935 10935 10935 10935 10935 10935 10934 10934 10934 10934 10934 10934 10934 10934 10934 10935 10935 10936 10936 10936 10936 10936 10936 10936 10936 10936 10936 10935 10935 10935 10935
10982 10982 10981 10981 10980 10979 10978 10977 10976 10975 10973 10971 10969 10968 10966 10965 10963 10962 10961 10960 10958 10957 10956 10954 10952 10951 10949 10947 10945 10944 10943 10942 10942 10942 10941 10941 10941 10941 10940 10939 10939 10938 10938 10937 10937 10937 10937 10936 10936 10936 10936 10936 10936 10935 10935 10935 10935 10934 10934 10934 10934 10934 10934 10934 10934 10934 10934 10934 10934 10934 10935 10935 10935 10935 10935 10935 10936 10936 10936 10936 10935 10935 10935 10935 10935
10984 10984 10983 10983 10982 10981 10980 10979 10978 10976 10974 10973 10971 10970 10969 10967 10965 10964 10962 10961 10960 10959 10957 10956 10954 10953 10951 10949 10947 10946 10945 10943 10942 10942 10942 10941 10941 10941 10940 10940 10939 10938 10938 10937 10937 10937 10936 10936 10935 10935 10935 10935 10934 10934 10934 10934 10934 10933 10933 10933 10933 10933 10934 10933 10933 10933 10933 10934 10934 10934 10934 10934 10935 10935 10935 10935 10935 10935 10935 10935 10935 10935 10935 10935 10935
10986 10985 10985 10984 10984 10983 10982 10981 10980 10978 10976 10975 10974 10973 10971 10970 10968 10966 10965 10963 10962 10960 10959 10957 10956 10954 10953 10951 10949 10948 10947 10945 10944 10943 10942 10942 10941 10941 10941 10941 10940 10939 10938 10937 10937 10936 10935 10935 10934 10934 10934 10934 10933 10933 10932 10932 10932 10932 10932 10932 10933 10933 10933 10932 10932 10932 10932 10933 10933 10933 10933 10933 10934 10934 10934 10934 10934 10934 10934 10934 10934 10935 10935 10935 10934
10988 10987 10986 10986 10985 10985 10984 10983 10981 10979 10978 10977 10976 10975 10974 10972 10970 10968 10967 10965 10964 10962 10960 10958 10957 10956 10955 10953 10951 10950 10948 10947 10946 10944 10944 10943 10942 10941 10942 10942 10940 10939 10938 10937 10936 10936 10935 10934 10934 10933 10933 10933 10933 10932 10931 10931 10930 10930 10930 10931 10932 10931 10931 10931 10931 10932 10932 10932 10932 10931 10931 10932 10932 10933 10933 10932 10932 10932 10932 10932 10933 10933 10934 10933 10933
10989 10989 10988 10987 10987 10986 10985 10984 10983 10981 10979 10979 10978 10977 10975 10973 10972 10970 10968 10967 10966 10964 10962 10960 10958 10957 10956 10955 10953 10952 10950 10949 10948 10946 10945 10945 10944 10943 10942 10941 10941 10939 10938 10937 10936 10935 10934 10933 10933 10933 10932 10932 10933 10931 10930 10929 10929 10929 10929 10929 10929 10929 10929 10929 10930 10930 10930 10931 10930 10930 10930 10931 10931 10931 10931 10931 10930 10930 10930 10931 10931 10931 10932 10932 10932
10991 10990 10990 10989 10988 10987 10986 10985 10984 10982 10981 10980 10980 10978 10977 10975 10973 10971 10970 10968 10967 10965 10963 10962 10960 10958 10957 10956 10954 10953 10952 10951 10949 10948 10947 10946 10946 10946 10944 10942 10941 10940 10938 10937 10936 10935 10934 10932 10931 10931 10931 10931 10931 10930 10929 10927 10927 10927 10928 10927 10926 10926 10926 10926 10927 10928 10928 10928 10928 10929 10929 10929 10929 10929 10929 10929 10928 10928 10928 10928 10929 10929 10929 10929 10929
10993 10992 10991 10990 10989 10988 10987 10986 10985 10984 10983 10982 10981 10979 10977 10976 10974 10973 10971 10970 10968 10967 10965 10963 10962 10960 10958 10957 10956 10954 10953 10952 10951 10949 10949 10948 10947 10947 10946 10944 10942 10939 10937 10937 10936 10935 10933 10932 10931 10930 10929 10929 10929 10929 10927 10926 10925 10925 10926 10925 10924 10923 10923 10924 10924 10925 10925 10925 10926 10927 10927 10927 10928 10927 10927 10927 10926 10926 10926 10926 10926 10926 10926 10926 10927
10994 10993 10992 10991 10990 10989 10989 10988 10987 10986 10984 10983 10982 10980 10978 10977 10976 10975 10973 10971 10970 10968 10966 10965 10963 10961 10960 10958 10957 10956 10954 10953 10952 10951 10950 10949 10948 10947 10946 10945 10942 10939 10937 10936 10935 10935 10934 10932 10931 10929 10928 10927 10927 10926 10925 10924 10923 10922 10923 10923 10922 10921 10921 10921 10921 10922 10922 10922 10923 10924 10924 10925 10925 10925 10925 10925 10925 10925 10924 10924 10924 10924 10924 10924 10924
10995 10994 10993 10992 10991 10991 10990 10989 10988 10987 10986 10985 10983 10982 10980 10979 10978 10977 10975 10973 10971 10970 10968 10966 10964 10963 10962 10960 10959 10957 10956 10954 10953 10952 10951 10950 10950 10949 10947 10946 10944 10941 10939 10936 10934 10934 10934 10933 10931 10929 10928 10926 10926 10924 10923 10922 10921 10920 10920 10920 10920 10919 10919 10919 10919 10920 10920 10920 10920 10920 10921 10922 10922 10922 10922 10923 10923 10923 10923 10922 10921 10921 10922 10921 10921
10996 10995 10994 10993 10993 10992 10991 10991 10990 10989 10988 10986 10985 10984 10982 10981 10980 10979 10977 10975 10973 10971 10970 10968 10966 10966 10964 10963 10961 10960 10958 10957 10955 10954 10953 10952 10951 10950 10949 10947 10946 10944 10941 10939 10935 10933 10933 10933 10930 10929 10928 10926 10925 10923 10921 10920 10919 10918 10917 10917 10917 10917 10917 10917 10917 10918 10918 10918 10917 10917 10917 10918 10918 10918 10918 10919 10920 10921 10920 10920 10920 10920 10919 10919 10919
10997 10996 10995 10995 10994 10993 10993 10992 10991 10990 10989 10988 10987 10986 10984 10983 10982 10981 10979 10977 10975 10973 10972 10970 10969 10968 10966 10965 10963 10962 10960 10959 10957 10956 10954 10953 10952 10951 10950 10948 10947 10946 10944 10942 10939 10936 10935 10933 10931 10930 10928 10926 10924 10922 10920 10919 10917 10916 10915 10914 10914 10914 10914 10914 10915 10915 10915 10915 10914 10914 10914 10914 10914 10914 10915 10916 10916 10917 10917 10917 10917 10917 10917 10917 10917
10998 10997 10996 10996 10995 10995 10994 10993 10993 10992 10991 10990 10989 10988 10987 10986 10985 10983 10981 10979 10977 10975 10973 10972 10971 10969 10968 10966 10965 10964 10962 10961 10959 10958 10956 10954 10953 10952 10950 10949 10948 10946 10945 10943 10942 10940 10938 10935 10933 10930 10928 10925 10922 10920 10919 10918 10917 10915 10913 10912 10911 10911 10911 10911 10912 10912 10912 10912 10911 10911 10911 10911 10911 10911 10911 10912 10912 10912 10912 10913 10913 10913 10914 10914 10914
10998 10998 10997 10997 10996 10996 10995 10995 10994 10993 10993 10992 10991 10990 10989 10988 10987 10984 10982 10980 10978 10976 10975 10973 10972 10970 10969 10968 10966 10965 10963 10962 10961 10959 10957 10956 10954 10952 10951 10950 10948 10947 10945 10944 10942 10940 10938 10936 10933 10930 10927 10925 10922 10920 10919 10917 10915 10914 10913 10911 10910 10909 10909 10909 10909 10909 10909 10909 10909 10908 10908 10908 10908 10908 10907 10907 10908 10908 10908 10908 10909 10909 10910 10910 10911
10999 10999 10998 10998 10997 10997 10996 10996 10995 10994 10994 10993 10992 10991 10991 10990 10988 10986 10984 10982 10980 10978 10976 10974 10973 10971 10970 10969 10968 10966 10965 10964 10962 10960 10958 10957 10955 10953 10951 10950 10948 10946 10945 10943 10941 10939 10937 10935 10932 10930 10927 10925 10923 10920 10918 10916 10914 10913 10911 10910 10909 10908 10907 10906 10906 10906 10906 10906 10906 10906 10906 10905 10905 10904 10904 10904 10904 10904 10904 10904 10904 10905 10905 10906 10906
11000 10999 10999 10998 10998 10997 10997 10997 10996 10995 10995 10994 10993 10992 10992 10991 10989 10987 10985 10983 10981 10979 10977 10975 10974 10973 10971 10970 10968 10967 10966 10965 10963 10961 10959 10958 10956 10954 10952 10950 10948 10946 10944 10942 10940 10938 10935 10933 10931 10929 10926 10924 10922 10920 10917 10916 10914 10912 10910 10908 10907 10906 10905 10904 10904 10904 10903 10903 10903 10903 10903 10903 10902 10902 10901 10900 10900 10900 10900 10900 10900 10900 10901 10901 10902
11000 11000 11000 10999 10998 10998 10998 10997 10997 10996 10995 10995 10994 10993 10993 10992 10990 10988 10986 10983 10981 10980 10978 10977 10975 10974 10972 10971 10969 10968 10967 10965 10964 10962 10960 10958 10956 10954 10952 10950 10948 10946 10944 10942 10939 10937 10934 10932 10929 10927 10925 10922 10920 10918 10916 10914 10912 10911 10909 10907 10905 10904 10903 10902 10902 10901 10901 10901 10900 10900 10899 10899 10899 10899 10898 10897 10897 10896 10896 10896 10896 10896 10896 10896 10897
11001 11001 11000 11000 10999 10998 10998 10998 10997 10997 10996 10996 10995 10994 10993 10992 10991 10989 10986 10984 10982 10981 10979 10978 10976 10975 10973 10972 10970 10968 10967 10965 10964 10963 10961 10959 10957 10955 10952 10950 10948 10946 10944 10941 10939 10936 10933 10930 10928 10925 10923 10920 10918 10916 10914 10912 10910 10909 10907 10905 10903 10902 10901 10900 10899 10899 10898 10898 10897 10897 10896 10896 10895 10895 10895 10894 10894 10894 10893 10893 10892 10892 10891 10891 10891
11001 11001 11001 11000 11000 10999 10999 10998 10998 10997 10997 10996 10996 10994 10993 10992 10991 10989 10987 10985 10983 10982 10980 10979 10977 10976 10974 10972 10970 10968 10967 10965 10964 10963 10961 10959 10957 10954 10952 10950 10948 10946 10944 10941 10939 10936 10933 10930 10927 10924 10921 10919 10917 10915 10912 10910 10908 10906 10904 10903 10901 10900 10899 10897 10897 10896 10896 10895 10895 10894 10894 10893 10892 10892 10891 10891 10891 10890 10890 10890 10889 10888 10887 10887 10886
11002 11001 11001 11001 11000 11000 10999 10999 10998 10998 10997 10996 10996 10994 10993 10992 10991 10989 10987 10986 10984 10982 10981 10979 10978 10976 10974 10972 10970 10968 10967 10965 10964 10962 10960 10959 10957 10955 10952 10950 10948 10946 10944 10941 10939 10936 10933 10930 10926 10924 10921 10919 10916 10914 10912 10909 10907 10905 10903 10901 10899 10898 10897 10896 10895 10894 10893 10893 10892 10892 10891 10890 10889 10889 10888 10888 10887 10887 10886 10886 10886 10885 10884 10883 10882
11002 11002 11001 11001 11001 11000 10999 10999 10998 10998 10997 10996 10995 10994 10993 10991 10990 10989 10987 10986 10984 10983 10981 10980 10978 10976 10974 10972 10970 10968 10966 10965 10963 10961 10960 10958 10957 10955 10953 10950 10948 10946 10943 10941 10938 10936 10932 10929 10926 10923 10921 10919 10917 10914 10912 10909 10906 10904 10902 10900 10898 10897 10896 10895 10894 10893 10892 10891 10890 10890 10889 10887 10886 10885 10884 10884 10884 10883 10883 10882 10882 10881 10880 10879 10878
11001 11001 11001 11001 11001 11000 11000 10999 10998 10998 10997 10996 10995 10994 10992 10991 10989 10988 10987 10986 10984 10983 10981 10980 10979 10977 10975 10973 10970 10968 10966 10964 10962 10961 10959 10957 10956 10954 10952 10950 10948 10945 10943 10941 10938 10936 10932 10929 10926 10923 10921 10919 10917 10915 10912 10909 10906 10903 10901 10899 10897 10896 10895 10894 10893 10892 10891 10890 10889 10888 10887 10885 10884 10883 10881 10880 10880 10879 10878 10878 10877 10877 10876 10875 10874
11001 11001 11001 11001 11001 11000 10999 10999 10998 10997 10997 10996 10995 10994 10992 10990 10989 10988 10986 10985 10984 10982 10981 10980 10979 10977 10975 10973 10970 10968 10966 10964 10962 10960 10958 10956 10955 10953 10951 10949 10947 10945 10943 10941 10938 10936 10932 10929 10927 10924 10922 10919 10917 10914 10912 10909 10906 10903 10901 10899 10897 10895 10894 10893 10891 10890 10889 10888 10887 10886 10885 10884 10882 10881 10879 10878 10876 10875 10874 10874 10872 10871 10870 10869 10869
11001 11001 11001 11001 11000 11000 10999 10998 10997 10997 10996 10995 10995 10993 10992 10990 10989 10987 10986 10985 10984 10982 10981 10979 10978 10976 10974 10972 10970 10968 10966 10963 10961 10959 10957 10955 10953 10952 10950 10948 10946 10945 10943 10940 10938 10935 10932 10930 10928 10925 10923 10920 10917 10914 10911 10908 10906 10903 10901 10898 10897 10895 10893 10892 10890 10889 10888 10887 10886 10885 10883 10882 10880 10879 10877 10875 10874 10872 10871 10870 10868 10867 10865 10864 10862
11000 11000 11000 11000 10999 10999 10998 10998 10997 10996 10995 10995 10994 10993 10991 10989 10988 10987 10986 10984 10983 10982 10981 10979 10977 10975 10974 10972 10970 10968 10965 10963 10961 10958 10956 10954 10952 10950 10949 10947 10945 10944 10942 10940 10937 10934 10931 10929 10928 10925 10923 10920 10917 10914 10911 10908 10905 10902 10899 10897 10896 10894 10893 10891 10890 10888 10887 10886 10884 10883 10881 10879 10878 10876 10874 10872 10871 10869 10867 10866 10864 10862 10861 10859 10857
10999 10999 10999 10998 10998 10998 10997 10996 10996 10995 10994 10994 10993 10992 10990 10989 10987 10986 10985 10983 10982 10981 10980 10978 10976 10975 10973 10971 10969 10967 10965 10963 10960 10958 10956 10953 10951 10949 10947 10945 10944 10942 10940 10938 10936 10933 10931 10928 10927 10924 10922 10919 10917 10914 10911 10908 10905 10901 10898 10896 10894 10893 10892 10890 10889 10888 10886 10885 10883 10881 10879 10877 10875 10873 10871 10869 10867 10865 10864 10862 10860 10858 10856 10854 10852
10997 10997 10997 10997 10997 10996 10996 10995 10994 10993 10993 10993 10992 10991 10990 10988 10986 10985 10984 10983 10981 10980 10978 10977 10975 10974 10972 10970 10968 10967 10965 10963 10960 10958 10956 10953 10950 10948 10946 10944 10942 10940 10939 10936 10934 10931 10929 10927 10925 10923 10920 10918 10915 10912 10909 10906 10903 10899 10896 10894 10893 10891 10890 10889 10888 10887 10885 10884 10882 10880 10878 10875 10872 10870 10867 10865 10863 10861 10859 10857 10855 10853 10851 10849 10847
10996 10996 10996 10996 10995 10995 10994 10994 10993 10992 10991 10991 10991 10990 10988 10987 10985 10984 10983 10982 10980 10979 10977 10975 10974 10972 10971 10969 10967 10966 10964 10962 10960 10958 10955 10952 10950 10947 10945 10943 10941 10939 10936 10934 10932 10930 10928 10925 10923 10921 10918 10915 10912 10909 10906 10903 10900 10896 10894 10892 10890 10889 10888 10887 10886 10885 10883 10881 10879 10877 10875 10873 10870 10867 10864 10861 10858 10855 10853 10850 10848 10846 10844 10842 10840
10994 10995 10994 10994 10994 10993 10992 10992 10991 10991 10990 10989 10989 10988 10987 10986 10984 10983 10982 10980 10978 10977 10975 10974 10973 10971 10969 10967 10966 10964 10962 10960 10959 10956 10954 10951 10949 10946 10943 10941 10939 10937 10934 10932 10930 10928 10926 10924 10922 10919 10917 10914 10911 10907 10904 10901 10898 10895 10892 10890 10889 10887 10886 10885 10883 10882 10880 10877 10875 10873 10870 10868 10865 10863 10860 10857 10853 10850 10847 10844 10841 10839 10836 10834 10831
10993 10993 10992 10992 10992 10991 10990 10990 10990 10989 10988 10988 10987 10987 10986 10984 10983 10981 10980 10979 10977 10975 10973 10972 10971 10969 10968 10966 10964 10962 10960 10958 10956 10954 10952 10950 10947 10944 10942 10939 10937 10934 10932 10930 10928 10926 10925 10923 10921 10919 10916 10913 10910 10907 10904 10900 10897 10894 10892 10889 10888 10886 10884 10883 10881 10879 10876 10874 10871 10868 10866 10863 10861 10858 10855 10852 10848 10845 10841 10838 10834 10831 10828 10824 10822
10990 10991 10990 10990 10990 10989 10988 10988 10988 10987 10986 10985 10985 10985 10984 10983 10981 10979 10978 10977 10975 10973 10971 10970 10969 10967 10966 10964 10962 10960 10958 10956 10954 10952 10949 10947 10945 10942 10940 10937 10935 10932 10930 10928 10925 10924 10922 10921 10919 10917 10915 10913 10910 10907 10904 10900 10897 10894 10891 10888 10886 10884 10882 10880 10877 10875 10872 10870 10866 10863 10860 10858 10855 10852 10849 10845 10841 10837 10833 10829 10826 10822 10819 10815 10812
10988 10988 10988 10988 10987 10987 10986 10986 10986 10985 10984 10983 10983 10982 10982 10981 10979 10978 10976 10975 10973 10971 10969 10967 10966 10965 10963 10961 10959 10957 10955 10953 10951 10949 10946 10944 10942 10939 10937 10934 10932 10930 10927 10925 10923 10921 10919 10918 10916 10915 10913 10911 10908 10905 10902 10899 10896 10893 10889 10886 10883 10881 10879 10877 10874 10871 10868 10864 10861 10857 10854 10851 10848 10844 10841 10836 10831 10827 10823 10820 10816 10812 10809 10805 10801
10986 10986 10986 10986 10985 10985 10984 10984 10983 10983 10982 10981 10980 10980 10979 10978 10977 10975 10974 10973 10971 10969 10967 10965 10964 10962 10961 10959 10956 10954 10952 10950 10948 10946 10944 10941 10939 10936 10934 10931 10929 10927 10924 10922 10920 10918 10916 10914 10913 10911 10909 10907 10905 10902 10899 10896 10893 10890 10886 10883 10881 10879 10876 10873 10870 10867 10863 10859 10855 10851 10848 10844 10841 10837 10832 10827 10822 10817 10813 10809 10805 10801 10797 10793 10789
10984 10984 10984 10984 10983 10982 10982 10981 10981 10980 10979 10978 10977 10977 10976 10975 10975 10973 10971 10970 10969 10966 10964 10962 10961 10959 10958 10956 10954 10952 10949 10947 10945 10943 10941 10938 10936 10933 10931 10928 10926 10924 10921 10919 10917 10915 10913 10911 10909 10907 10905 10903 10900 10897 10894 10891 10889 10886 10882 10879 10877 10875 10872 10869 10865 10862 10858 10854 10850 10845 10841 10837 10834 10829 10824 10818 10812 10807 10802 10797 10792 10787 10783 10779 10775
10981 10982 10982 10981 10981 10980 10979 10979 10978 10977 10976 10975 10974 10973 10973 10972 10972 10971 10969 10967 10966 10964 10962 10960 10958 10956 10954 10953 10951 10949 10947 10944 10942 10940 10938 10935 10932 10930 10928 10926 10923 10921 10919 10916 10914 10912 10910 10907 10905 10904 10902 10899 10896 10893 10890 10887 10884 10881 10878 10875 10873 10870 10867 10864 10860 10856 10852 10848 10844 10839 10834 10830 10826 10821 10816 10810 10803 10797 10791 10785 10779 10773 10767 10763 10759
10978 10979 10979 10978 10978 10977 10977 10976 10975 10974 10973 10972 10971 10970 10969 10969 10968 10967 10966 10964 10962 10961 10959 10957 10955 10953 10951 10949 10948 10946 10943 10941 10939 10937 10934 10932 10929 10927 10924 10922 10920 10918 10916 10914 10912 10910 10908 10905 10902 10900 10898 10895 10892 10889 10886 10883 10880 10877 10874 10871 10869 10866 10863 10859 10855 10851 10847 10842 10838 10832 10827 10823 10818 10814 10808 10801 10795 10789 10782 10776 10768 10760 10753 10747 10742
10975 10975 10975 10975 10974 10974 10973 10973 10971 10971 10970 10969 10968 10967 10965 10965 10964 10964 10962 10960 10959 10957 10955 10953 10951 10950 10948 10946 10944 10942 10940 10938 10936 10933 10931 10929 10926 10924 10922 10919 10917 10914 10912 10911 10909 10908 10906 10904 10901 10898 10895 10893 10889 10886 10883 10880 10877 10874 10871 10868 10865 10862 10859 10855 10851 10846 10842 10837 10832 10827 10822 10817 10812 10807 10801 10794 10788 10782 10776 10768 10759 10750 10740 10732 10726
10972 10971 10971 10971 10971 10970 10970 10969 10968 10967 10966 10965 10965 10963 10962 10961 10960 10959 10958 10956 10955 10953 10951 10949 10947 10946 10944 10942 10940 10938 10936 10934 10932 10930 10928 10925 10923 10921 10918 10916 10913 10911 10909 10907 10906 10905 10903 10902 10899 10897 10894 10891 10888 10885 10882 10878 10875 10872 10869 10866 10863 10860 10857 10853 10848 10843 10837 10832 10827 10822 10817 10812 10807 10801 10795 10788 10781 10775 10768 10760 10750 10741 10730 10720 10712
10968 10968 10967 10967 10967 10966 10966 10965 10965 10964 10962 10961 10960 10960 10958 10957 10955 10954 10954 10952 10950 10948 10946 10944 10942 10941 10940 10938 10936 10934 10932 10930 10928 10926 10924 10921 10919 10917 10915 10912 10910 10907 10905 10903 10902 10901 10899 10898 10896 10894 10892 10889 10886 10883 10880 10876 10873 10870 10867 10865 10862 10858 10854 10850 10845 10839 10833 10827 10822 10816 10812 10807 10802 10796 10788 10780 10773 10767 10759 10751 10740 10730 10719 10710 10701
10964 10964 10963 10963 10962 10962 10962 10961 10961 10960 10958 10956 10956 10956 10955 10953 10951 10949 10949 10948 10946 10944 10942 10940 10938 10937 10935 10934 10932 10930 10928 10926 10924 10922 10919 10917 10915 10912 10910 10908 10906 10903 10901 10900 10898 10896 10895 10894 10893 10891 10888 10886 10883 10880 10877 10873 10870 10867 10864 10861 10858 10855 10851 10846 10840 10832 10827 10822 10816 10811 10806 10801 10795 10789 10780 10772 10765 10758 10750 10741 10730 10718 10707 10698 10691
10959 10959 10959 10958 10958 10957 10957 10957 10957 10956 10954 10952 10951 10951 10951 10949 10946 10945 10943 10943 10941 10940 10937 10935 10933 10932 10931 10929 10927 10926 10924 10922 10920 10918 10915 10913 10911 10908 10906 10904 10902 10899 10897 10896 10894 10892 10890 10889 10888 10886 10883 10881 10879 10876 10873 10870 10867 10864 10860 10856 10853 10849 10845 10841 10834 10825 10819 10815 10809 10804 10799 10793 10787 10780 10772 10764 10756 10749 10740 10731 10720 10709 10698 10689 10682
10955 10955 10954 10953 10953 10953 10952 10952 10952 10951 10950 10948 10946 10946 10946 10944 10942 10940 10939 10937 10936 10935 10933 10930 10928 10927 10926 10925 10923 10921 10920 10918 10916 10914 10911 10909 10906 10904 10902 10900 10898 10896 10893 10891 10889 10888 10886 10884 10883 10881 10878 10876 10874 10872 10869 10865 10862 10860 10856 10852 10848 10844 10839 10834 10827 10819 10812 10807 10803 10796 10790 10784 10778 10770 10762 10754 10747 10740 10732 10723 10712 10702 10692 10682 10674
10950 10950 10949 10948 10948 10948 10947 10947 10946 10946 10945 10944 10942 10941 10940 10939 10938 10936 10934 10932 10931 10929 10927 10925 10923 10922 10921 10920 10918 10916 10914 10914 10912 10910 10907 10904 10902 10900 10898 10896 10894 10892 10889 10887 10884 10882 10880 10879 10878 10876 10874 10872 10870 10867 10864 10861 10858 10856 10852 10848 10844 10839 10834 10827 10820 10813 10806 10800 10795 10789 10782 10776 10769 10761 10753 10745 10738 10731 10723 10713 10704 10695 10685 10676 10668
10945 10944 10943 10944 10944 10943 10942 10941 10941 10940 10940 10939 10937 10936 10935 10934 10933 10932 10930 10928 10926 10924 10921 10919 10918 10917 10916 10914 10912 10910 10909 10908 10908 10906 10903 10900 10898 10895 10894 10892 10889 10887 10885 10883 10880 10878 10876 10874 10873 10872 10870 10868 10865 10862 10859 10856 10855 10852 10848 10844 10839 10834 10829 10821 10813 10807 10802 10795 10789 10782 10775 10769 10762 10753 10746 10738 10729 10722 10714 10705 10696 10688 10679 10669 10662
10939 10938 10938 10938 10938 10937 10937 10936 10935 10935 10934 10933 10931 10930 10930 10929 10928 10927 10926 10924 10921 10918 10915 10914 10913 10912 10911 10909 10907 10905 10904 10903 10902 10900 10898 10896 10894 10891 10889 10888 10885 10882 10881 10879 10876 10874 10872 10870 10869 10867 10866 10864 10861 10858 10854 10852 10850 10847 10844 10839 10834 10828 10822 10814 10806 10801 10796 10791 10785 10778 10771 10763 10755 10747 10739 10731 10722 10714 10708 10699 10689 10681 10674 10665 10657
10933 10932 10933 10933 10932 10931 10931 10930 10930 10929 10928 10926 10925 10924 10924 10923 10923 10922 10921 10918 10915 10912 10910 10909 10908 10907 10905 10903 10901 10899 10898 10898 10896 10894 10892 10891 10889 10887 10885 10883 10880 10878 10876 10874 10872 10870 10867 10866 10865 10863 10862 10860 10857 10854 10850 10848 10845 10843 10838 10834 10828 10822 10815 10807 10801 10796 10791 10785 10779 10773 10765 10758 10750 10741 10731 10723 10715 10707 10701 10694 10685 10675 10668 10660 10653
10927 10927 10926 10926 10925 10925 10925 10925 10924 10923 10921 10919 10918 10917 10917 10917 10917 10916 10915 10913 10909 10907 10904 10903 10902 10901 10899 10896 10894 10893 10893 10892 10890 10888 10887 10885 10884 10882 10879 10877 10875 10873 10871 10870 10867 10865 10863 10861 10860 10859 10858 10856 10853 10850 10847 10844 10841 10838 10833 10828 10823 10816 10809 10802 10796 10791 10786 10780 10773 10767 10760 10752 10744 10736 10726 10716 10708 10701 10694 10688 10680 10671 10661 10652 10645
10921 10921 10920 10919 10918 10918 10918 10918 10918 10916 10915 10913 10911 10911 10910 10910 10910 10910 10908 10906 10904 10901 10898 10897 10896 10894 10892 10890 10888 10886 10886 10885 10884 10882 10881 10880 10878 10877 10874 10872 10870 10868 10866 10865 10862 10860 10858 10857 10856 10855 10853 10851 10848 10846 10843 10840 10836 10833 10828 10822 10816 10809 10803 10797 10791 10785 10780 10774 10768 10761 10754 10746 10738 10731 10722 10712 10703 10695 10687 10681 10674 10666 10656 10646 10637
10915 10914 10913 10912 10912 10912 10911 10910 10910 10910 10908 10906 10905 10903 10902 10902 10902 10902 10901 10899 10897 10895 10893 10890 10888 10886 10885 10883 10880 10878 10878 10878 10876 10876 10876 10874 10872 10870 10869 10866 10864 10862 10861 10859 10857 10855 10854 10852 10851 10850 10848 10846 10844 10841 10838 10835 10831 10827 10821 10815 10809 10803 10797 10791 10785 10779 10774 10768 10761 10754 10748 10741 10733 10726 10717 10707 10697 10688 10679 10672 10664 10658 10650 10641 10632
10908 10907 10906 10906 10905 10904 10903 10903 10903 10903 10902 10900 10897 10894 10892 10892 10893 10893 10892 10891 10890 10889 10886 10883 10881 10880 10878 10876 10873 10870 10871 10871 10870 10870 10871 10869 10865 10864 10863 10861 10859 10857 10856 10854 10852 10850 10849 10848 10846 10845 10843 10841 10839 10836 10833 10829 10825 10820 10815 10809 10803 10797 10791 10786 10779 10773 10767 10761 10754 10747 10742 10735 10728 10720 10713 10703 10692 10681 10671 10663 10655 10649 10642 10635 10628
10900 10900 10900 10899 10897 10896 10896 10896 10896 10895 10894 10893 10891 10887 10884 10882 10881 10882 10882 10882 10882 10881 10879 10876 10874 10873 10871 10869 10866 10864 10864 10865 10864 10865 10865 10862 10859 10858 10857 10856 10854 10852 10851 10850 10847 10846 10845 10844 10842 10840 10838 10836 10833 10831 10827 10823 10818 10813 10807 10802 10797 10791 10785 10780 10774 10767 10762 10756 10749 10742 10736 10730 10723 10715 10708 10699 10689 10677 10665 10655 10647 10640 10633 10627 10621